Year,Month,Day,Hour,Minute,Value (Times are PST for temperature in C)
2016,08,04,00,00,15.70
2016,08,04,00,01,15.70
2016,08,04,00,02,15.70
2016,08,04,00,03,15.70
2016,08,04,00,04,15.70
2016,08,04,00,05,15.70
2016,08,04,00,06,15.70
2016,08,04,00,07,15.80
2016,08,04,00,08,15.80
2016,08,04,00,09,15.80
2016,08,04,00,10,15.80
2016,08,04,00,11,15.80
2016,08,04,00,12,15.70
2016,08,04,00,13,15.70
2016,08,04,00,14,15.70
2016,08,04,00,15,15.70
2016,08,04,00,16,15.70
2016,08,04,00,17,15.70
2016,08,04,00,18,15.70
2016,08,04,00,19,15.70
2016,08,04,00,20,15.70
2016,08,04,00,21,15.70
2016,08,04,00,22,15.60
2016,08,04,00,23,15.60
2016,08,04,00,24,15.60
2016,08,04,00,25,15.60
2016,08,04,00,26,15.60
2016,08,04,00,27,15.60
2016,08,04,00,28,15.60
2016,08,04,00,29,15.60
2016,08,04,00,30,15.60
2016,08,04,00,31,15.60
2016,08,04,00,32,15.60
2016,08,04,00,33,15.60
2016,08,04,00,34,15.60
2016,08,04,00,35,15.60
2016,08,04,00,36,15.60
2016,08,04,00,37,15.70
2016,08,04,00,38,15.70
2016,08,04,00,39,15.60
2016,08,04,00,40,15.60
2016,08,04,00,41,15.60
2016,08,04,00,42,15.60
2016,08,04,00,43,15.60
2016,08,04,00,44,15.60
2016,08,04,00,45,15.60
2016,08,04,00,46,15.60
2016,08,04,00,47,15.60
2016,08,04,00,48,15.50
2016,08,04,00,49,15.50
2016,08,04,00,50,15.50
2016,08,04,00,51,15.50
2016,08,04,00,52,15.50
2016,08,04,00,53,15.50
2016,08,04,00,54,15.50
2016,08,04,00,55,15.50
2016,08,04,00,56,15.50
2016,08,04,00,57,15.40
2016,08,04,00,58,15.40
2016,08,04,00,59,15.40
2016,08,04,01,00,15.40
2016,08,04,01,01,15.40
2016,08,04,01,02,15.40
2016,08,04,01,03,15.40
2016,08,04,01,04,15.40
2016,08,04,01,05,15.30
2016,08,04,01,06,15.30
2016,08,04,01,07,15.30
2016,08,04,01,08,15.30
2016,08,04,01,09,15.30
2016,08,04,01,10,15.30
2016,08,04,01,11,15.30
2016,08,04,01,12,15.30
2016,08,04,01,13,15.30
2016,08,04,01,14,15.40
2016,08,04,01,15,15.40
2016,08,04,01,16,15.40
2016,08,04,01,17,15.40
2016,08,04,01,18,15.40
2016,08,04,01,19,15.40
2016,08,04,01,20,15.30
2016,08,04,01,21,15.40
2016,08,04,01,22,15.40
2016,08,04,01,23,15.40
2016,08,04,01,24,15.40
2016,08,04,01,25,15.40
2016,08,04,01,26,15.40
2016,08,04,01,27,15.40
2016,08,04,01,28,15.40
2016,08,04,01,29,15.40
2016,08,04,01,30,15.40
2016,08,04,01,31,15.40
2016,08,04,01,32,15.40
2016,08,04,01,33,15.40
2016,08,04,01,34,15.40
2016,08,04,01,35,15.40
2016,08,04,01,36,15.40
2016,08,04,01,37,15.40
2016,08,04,01,38,15.40
2016,08,04,01,39,15.40
2016,08,04,01,40,15.40
2016,08,04,01,41,15.40
2016,08,04,01,42,15.40
2016,08,04,01,43,15.30
2016,08,04,01,44,15.30
2016,08,04,01,45,15.30
2016,08,04,01,46,15.30
2016,08,04,01,47,15.20
2016,08,04,01,48,15.20
2016,08,04,01,49,15.20
2016,08,04,01,50,15.20
2016,08,04,01,51,15.20
2016,08,04,01,52,15.20
2016,08,04,01,53,15.20
2016,08,04,01,54,15.20
2016,08,04,01,55,15.20
2016,08,04,01,56,15.20
2016,08,04,01,57,15.20
2016,08,04,01,58,15.20
2016,08,04,01,59,15.20
2016,08,04,02,00,15.20
2016,08,04,02,01,15.20
2016,08,04,02,02,15.20
2016,08,04,02,03,15.20
2016,08,04,02,04,15.20
2016,08,04,02,05,15.20
2016,08,04,02,06,15.20
2016,08,04,02,07,15.20
2016,08,04,02,08,15.30
2016,08,04,02,09,15.30
2016,08,04,02,10,15.20
2016,08,04,02,11,15.30
2016,08,04,02,12,15.30
2016,08,04,02,13,15.30
2016,08,04,02,14,15.30
2016,08,04,02,15,15.30
2016,08,04,02,16,15.30
2016,08,04,02,17,15.30
2016,08,04,02,18,15.30
2016,08,04,02,19,15.30
2016,08,04,02,20,15.30
2016,08,04,02,21,15.30
2016,08,04,02,22,15.30
2016,08,04,02,23,15.30
2016,08,04,02,24,15.20
2016,08,04,02,25,15.20
2016,08,04,02,26,15.20
2016,08,04,02,27,15.20
2016,08,04,02,28,15.20
2016,08,04,02,29,15.20
2016,08,04,02,30,15.20
2016,08,04,02,31,15.20
2016,08,04,02,32,15.20
2016,08,04,02,33,15.20
2016,08,04,02,34,15.20
2016,08,04,02,35,15.20
2016,08,04,02,36,15.20
2016,08,04,02,37,15.10
2016,08,04,02,38,15.10
2016,08,04,02,39,15.10
2016,08,04,02,40,15.10
2016,08,04,02,41,15.10
2016,08,04,02,42,15.10
2016,08,04,02,43,15.10
2016,08,04,02,44,15.00
2016,08,04,02,45,15.00
2016,08,04,02,46,15.00
2016,08,04,02,47,15.00
2016,08,04,02,48,15.00
2016,08,04,02,49,15.00
2016,08,04,02,50,15.00
2016,08,04,02,51,15.00
2016,08,04,02,52,14.90
2016,08,04,02,53,14.90
2016,08,04,02,54,14.90
2016,08,04,02,55,14.90
2016,08,04,02,56,14.90
2016,08,04,02,57,14.90
2016,08,04,02,58,14.90
2016,08,04,02,59,14.80
2016,08,04,03,00,14.80
2016,08,04,03,01,14.80
2016,08,04,03,02,14.80
2016,08,04,03,03,14.80
2016,08,04,03,04,14.80
2016,08,04,03,05,14.80
2016,08,04,03,06,14.80
2016,08,04,03,07,14.80
2016,08,04,03,08,14.80
2016,08,04,03,09,14.80
2016,08,04,03,10,14.80
2016,08,04,03,11,14.80
2016,08,04,03,12,14.80
2016,08,04,03,13,14.80
2016,08,04,03,14,14.80
2016,08,04,03,15,14.80
2016,08,04,03,16,14.80
2016,08,04,03,17,14.80
2016,08,04,03,18,14.80
2016,08,04,03,19,14.80
2016,08,04,03,20,14.90
2016,08,04,03,21,14.90
2016,08,04,03,22,14.90
2016,08,04,03,23,14.90
2016,08,04,03,24,14.90
2016,08,04,03,25,14.90
2016,08,04,03,26,14.90
2016,08,04,03,27,14.90
2016,08,04,03,28,14.90
2016,08,04,03,29,14.90
2016,08,04,03,30,14.90
2016,08,04,03,31,14.90
2016,08,04,03,32,14.90
2016,08,04,03,33,15.00
2016,08,04,03,34,14.90
2016,08,04,03,35,15.00
2016,08,04,03,36,15.00
2016,08,04,03,37,14.90
2016,08,04,03,38,14.90
2016,08,04,03,39,14.90
2016,08,04,03,40,14.90
2016,08,04,03,41,14.90
2016,08,04,03,42,14.90
2016,08,04,03,43,14.90
2016,08,04,03,44,14.90
2016,08,04,03,45,14.90
2016,08,04,03,46,14.80
2016,08,04,03,47,14.80
2016,08,04,03,48,14.80
2016,08,04,03,49,14.80
2016,08,04,03,50,14.80
2016,08,04,03,51,14.70
2016,08,04,03,52,14.70
2016,08,04,03,53,14.70
2016,08,04,03,54,14.70
2016,08,04,03,55,14.70
2016,08,04,03,56,14.70
2016,08,04,03,57,14.60
2016,08,04,03,58,14.60
2016,08,04,03,59,14.60
2016,08,04,04,00,14.60
2016,08,04,04,01,14.50
2016,08,04,04,02,14.50
2016,08,04,04,03,14.50
2016,08,04,04,04,14.40
2016,08,04,04,05,14.40
2016,08,04,04,06,14.40
2016,08,04,04,07,14.40
2016,08,04,04,08,14.40
2016,08,04,04,09,14.40
2016,08,04,04,10,14.40
2016,08,04,04,11,14.40
2016,08,04,04,12,14.40
2016,08,04,04,13,14.40
2016,08,04,04,14,14.50
2016,08,04,04,15,14.60
2016,08,04,04,16,14.60
2016,08,04,04,17,14.70
2016,08,04,04,18,14.80
2016,08,04,04,19,14.80
2016,08,04,04,20,14.90
2016,08,04,04,21,14.90
2016,08,04,04,22,14.90
2016,08,04,04,23,15.00
2016,08,04,04,24,15.00
2016,08,04,04,25,15.10
2016,08,04,04,26,15.10
2016,08,04,04,27,15.20
2016,08,04,04,28,15.20
2016,08,04,04,29,15.30
2016,08,04,04,30,15.30
2016,08,04,04,31,15.30
2016,08,04,04,32,15.40
2016,08,04,04,33,15.40
2016,08,04,04,34,15.40
2016,08,04,04,35,15.50
2016,08,04,04,36,15.50
2016,08,04,04,37,15.60
2016,08,04,04,38,15.60
2016,08,04,04,39,15.70
2016,08,04,04,40,15.70
2016,08,04,04,41,15.70
2016,08,04,04,42,15.70
2016,08,04,04,43,15.70
2016,08,04,04,44,15.70
2016,08,04,04,45,15.70
2016,08,04,04,46,15.70
2016,08,04,04,47,15.70
2016,08,04,04,48,15.70
2016,08,04,04,49,15.70
2016,08,04,04,50,15.70
2016,08,04,04,51,15.70
2016,08,04,04,52,15.70
2016,08,04,04,53,15.70
2016,08,04,04,54,15.70
2016,08,04,04,55,15.70
2016,08,04,04,56,15.70
2016,08,04,04,57,15.70
2016,08,04,04,58,15.70
2016,08,04,04,59,15.70
2016,08,04,05,00,15.80
2016,08,04,05,01,15.80
2016,08,04,05,02,15.80
2016,08,04,05,03,15.80
2016,08,04,05,04,15.80
2016,08,04,05,05,15.80
2016,08,04,05,06,15.80
2016,08,04,05,07,15.80
2016,08,04,05,08,15.80
2016,08,04,05,09,15.80
2016,08,04,05,10,15.80
2016,08,04,05,11,15.80
2016,08,04,05,12,15.80
2016,08,04,05,13,15.80
2016,08,04,05,14,15.80
2016,08,04,05,15,15.80
2016,08,04,05,16,15.80
2016,08,04,05,17,15.80
2016,08,04,05,18,15.80
2016,08,04,05,19,15.80
2016,08,04,05,20,15.80
2016,08,04,05,21,15.80
2016,08,04,05,22,15.80
2016,08,04,05,23,15.80
2016,08,04,05,24,15.80
2016,08,04,05,25,15.80
2016,08,04,05,26,15.80
2016,08,04,05,27,15.80
2016,08,04,05,28,15.80
2016,08,04,05,29,15.80
2016,08,04,05,30,15.80
2016,08,04,05,31,15.90
2016,08,04,05,32,15.90
2016,08,04,05,33,15.90
2016,08,04,05,34,15.90
2016,08,04,05,35,15.90
2016,08,04,05,36,15.90
2016,08,04,05,37,15.90
2016,08,04,05,38,15.90
2016,08,04,05,39,15.90
2016,08,04,05,40,15.90
2016,08,04,05,41,15.90
2016,08,04,05,42,15.90
2016,08,04,05,43,15.90
2016,08,04,05,44,15.90
2016,08,04,05,45,15.90
2016,08,04,05,46,15.90
2016,08,04,05,47,15.90
2016,08,04,05,48,15.90
2016,08,04,05,49,15.90
2016,08,04,05,50,15.90
2016,08,04,05,51,15.90
2016,08,04,05,52,15.90
2016,08,04,05,53,15.90
2016,08,04,05,54,15.90
2016,08,04,05,55,15.90
2016,08,04,05,56,15.90
2016,08,04,05,57,15.90
2016,08,04,05,58,15.90
2016,08,04,05,59,15.90
2016,08,04,06,00,15.90
2016,08,04,06,01,15.90
2016,08,04,06,02,15.90
2016,08,04,06,03,15.90
2016,08,04,06,04,15.90
2016,08,04,06,05,15.90
2016,08,04,06,06,15.90
2016,08,04,06,07,15.90
2016,08,04,06,08,15.90
2016,08,04,06,09,15.90
2016,08,04,06,10,15.90
2016,08,04,06,11,15.90
2016,08,04,06,12,15.90
2016,08,04,06,13,15.90
2016,08,04,06,14,15.90
2016,08,04,06,15,15.90
2016,08,04,06,16,15.90
2016,08,04,06,17,15.90
2016,08,04,06,18,15.90
2016,08,04,06,19,15.90
2016,08,04,06,20,15.90
2016,08,04,06,21,15.90
2016,08,04,06,22,15.90
2016,08,04,06,23,15.90
2016,08,04,06,24,15.90
2016,08,04,06,25,15.90
2016,08,04,06,26,15.90
2016,08,04,06,27,15.90
2016,08,04,06,28,15.90
2016,08,04,06,29,16.00
2016,08,04,06,30,16.00
2016,08,04,06,31,16.00
2016,08,04,06,32,16.00
2016,08,04,06,33,16.00
2016,08,04,06,34,16.10
2016,08,04,06,35,16.10
2016,08,04,06,36,16.10
2016,08,04,06,37,16.10
2016,08,04,06,38,16.20
2016,08,04,06,39,16.20
2016,08,04,06,40,16.20
2016,08,04,06,41,16.30
2016,08,04,06,42,16.30
2016,08,04,06,43,16.30
2016,08,04,06,44,16.30
2016,08,04,06,45,16.40
2016,08,04,06,46,16.40
2016,08,04,06,47,16.40
2016,08,04,06,48,16.40
2016,08,04,06,49,16.40
2016,08,04,06,50,16.50
2016,08,04,06,51,16.50
2016,08,04,06,52,16.50
2016,08,04,06,53,16.60
2016,08,04,06,54,16.60
2016,08,04,06,55,16.60
2016,08,04,06,56,16.60
2016,08,04,06,57,16.70
2016,08,04,06,58,16.70
2016,08,04,06,59,16.70
2016,08,04,07,00,16.80
2016,08,04,07,01,16.80
2016,08,04,07,02,16.80
2016,08,04,07,03,16.80
2016,08,04,07,04,16.80
2016,08,04,07,05,16.90
2016,08,04,07,06,16.90
2016,08,04,07,07,16.90
2016,08,04,07,08,16.90
2016,08,04,07,09,16.90
2016,08,04,07,10,16.90
2016,08,04,07,11,17.00
2016,08,04,07,12,17.00
2016,08,04,07,13,17.00
2016,08,04,07,14,17.10
2016,08,04,07,15,17.10
2016,08,04,07,16,17.10
2016,08,04,07,17,17.20
2016,08,04,07,18,17.20
2016,08,04,07,19,17.20
2016,08,04,07,20,17.20
2016,08,04,07,21,17.30
2016,08,04,07,22,17.30
2016,08,04,07,23,17.30
2016,08,04,07,24,17.30
2016,08,04,07,25,17.30
2016,08,04,07,26,17.30
2016,08,04,07,27,17.30
2016,08,04,07,28,17.40
2016,08,04,07,29,17.40
2016,08,04,07,30,17.40
2016,08,04,07,31,17.40
2016,08,04,07,32,17.40
2016,08,04,07,33,17.50
2016,08,04,07,34,17.50
2016,08,04,07,35,17.50
2016,08,04,07,36,17.60
2016,08,04,07,37,17.60
2016,08,04,07,38,17.60
2016,08,04,07,39,17.60
2016,08,04,07,40,17.60
2016,08,04,07,41,17.60
2016,08,04,07,42,17.70
2016,08,04,07,43,17.70
2016,08,04,07,44,17.70
2016,08,04,07,45,17.70
2016,08,04,07,46,17.80
2016,08,04,07,47,17.80
2016,08,04,07,48,17.80
2016,08,04,07,49,17.80
2016,08,04,07,50,17.80
2016,08,04,07,51,17.80
2016,08,04,07,52,17.80
2016,08,04,07,53,17.80
2016,08,04,07,54,17.80
2016,08,04,07,55,17.80
2016,08,04,07,56,17.90
2016,08,04,07,57,17.90
2016,08,04,07,58,17.90
2016,08,04,07,59,18.00
2016,08,04,08,00,18.00
2016,08,04,08,01,18.00
2016,08,04,08,02,18.00
2016,08,04,08,03,18.10
2016,08,04,08,04,18.10
2016,08,04,08,05,18.10
2016,08,04,08,06,18.10
2016,08,04,08,07,18.20
2016,08,04,08,08,18.20
2016,08,04,08,09,18.20
2016,08,04,08,10,18.20
2016,08,04,08,11,18.20
2016,08,04,08,12,18.20
2016,08,04,08,13,18.20
2016,08,04,08,14,18.20
2016,08,04,08,15,18.20
2016,08,04,08,16,18.20
2016,08,04,08,17,18.20
2016,08,04,08,18,18.20
2016,08,04,08,19,18.20
2016,08,04,08,20,18.30
2016,08,04,08,21,18.30
2016,08,04,08,22,18.30
2016,08,04,08,23,18.30
2016,08,04,08,24,18.30
2016,08,04,08,25,18.30
2016,08,04,08,26,18.30
2016,08,04,08,27,18.30
2016,08,04,08,28,18.30
2016,08,04,08,29,18.30
2016,08,04,08,30,18.30
2016,08,04,08,31,18.30
2016,08,04,08,32,18.30
2016,08,04,08,33,18.30
2016,08,04,08,34,18.30
2016,08,04,08,35,18.30
2016,08,04,08,36,18.30
2016,08,04,08,37,18.30
2016,08,04,08,38,18.30
2016,08,04,08,39,18.40
2016,08,04,08,40,18.30
2016,08,04,08,41,18.30
2016,08,04,08,42,18.40
2016,08,04,08,43,18.40
2016,08,04,08,44,18.40
2016,08,04,08,45,18.40
2016,08,04,08,46,18.40
2016,08,04,08,47,18.40
2016,08,04,08,48,18.40
2016,08,04,08,49,18.50
2016,08,04,08,50,18.50
2016,08,04,08,51,18.50
2016,08,04,08,52,18.50
2016,08,04,08,53,18.60
2016,08,04,08,54,18.60
2016,08,04,08,55,18.60
2016,08,04,08,56,18.60
2016,08,04,08,57,18.70
2016,08,04,08,58,18.70
2016,08,04,08,59,18.60
2016,08,04,09,00,18.60
2016,08,04,09,01,18.60
2016,08,04,09,02,18.50
2016,08,04,09,03,18.50
2016,08,04,09,04,18.50
2016,08,04,09,05,18.50
2016,08,04,09,06,18.50
2016,08,04,09,07,18.50
2016,08,04,09,08,18.50
2016,08,04,09,09,18.50
2016,08,04,09,10,18.40
2016,08,04,09,11,18.40
2016,08,04,09,12,18.50
2016,08,04,09,13,18.50
2016,08,04,09,14,18.50
2016,08,04,09,15,18.60
2016,08,04,09,16,18.60
2016,08,04,09,17,18.60
2016,08,04,09,18,18.60
2016,08,04,09,19,18.70
2016,08,04,09,20,18.70
2016,08,04,09,21,18.70
2016,08,04,09,22,18.70
2016,08,04,09,23,18.70
2016,08,04,09,24,18.70
2016,08,04,09,25,18.70
2016,08,04,09,26,18.60
2016,08,04,09,27,18.50
2016,08,04,09,28,18.50
2016,08,04,09,29,18.50
2016,08,04,09,30,18.40
2016,08,04,09,31,18.40
2016,08,04,09,32,18.50
2016,08,04,09,33,18.50
2016,08,04,09,34,18.50
2016,08,04,09,35,18.50
2016,08,04,09,36,18.40
2016,08,04,09,37,18.40
2016,08,04,09,38,18.40
2016,08,04,09,39,18.50
2016,08,04,09,40,18.50
2016,08,04,09,41,18.50
2016,08,04,09,42,18.50
2016,08,04,09,43,18.40
2016,08,04,09,44,18.50
2016,08,04,09,45,18.50
2016,08,04,09,46,18.50
2016,08,04,09,47,18.50
2016,08,04,09,48,18.60
2016,08,04,09,49,18.60
2016,08,04,09,50,18.60
2016,08,04,09,51,18.60
2016,08,04,09,52,18.70
2016,08,04,09,53,18.70
2016,08,04,09,54,18.70
2016,08,04,09,55,18.70
2016,08,04,09,56,18.70
2016,08,04,09,57,18.70
2016,08,04,09,58,18.70
2016,08,04,09,59,18.70
2016,08,04,10,00,18.80
2016,08,04,10,01,18.80
2016,08,04,10,02,18.80
2016,08,04,10,03,18.80
2016,08,04,10,04,18.80
2016,08,04,10,05,18.80
2016,08,04,10,06,18.90
2016,08,04,10,07,18.80
2016,08,04,10,08,18.80
2016,08,04,10,09,18.80
2016,08,04,10,10,18.80
2016,08,04,10,11,18.80
2016,08,04,10,12,18.80
2016,08,04,10,13,18.90
2016,08,04,10,14,18.90
2016,08,04,10,15,19.00
2016,08,04,10,16,19.00
2016,08,04,10,17,19.00
2016,08,04,10,18,19.00
2016,08,04,10,19,18.90
2016,08,04,10,20,19.00
2016,08,04,10,21,19.00
2016,08,04,10,22,18.90
2016,08,04,10,23,18.90
2016,08,04,10,24,18.90
2016,08,04,10,25,18.90
2016,08,04,10,26,18.80
2016,08,04,10,27,18.80
2016,08,04,10,28,18.70
2016,08,04,10,29,18.60
2016,08,04,10,30,18.60
2016,08,04,10,31,18.50
2016,08,04,10,32,18.50
2016,08,04,10,33,18.40
2016,08,04,10,34,18.40
2016,08,04,10,35,18.30
2016,08,04,10,36,18.30
2016,08,04,10,37,18.30
2016,08,04,10,38,18.20
2016,08,04,10,39,18.20
2016,08,04,10,40,18.10
2016,08,04,10,41,18.10
2016,08,04,10,42,18.10
2016,08,04,10,43,18.10
2016,08,04,10,44,18.20
2016,08,04,10,45,18.20
2016,08,04,10,46,18.30
2016,08,04,10,47,18.30
2016,08,04,10,48,18.40
2016,08,04,10,49,18.40
2016,08,04,10,50,18.50
2016,08,04,10,51,18.60
2016,08,04,10,52,18.60
2016,08,04,10,53,18.70
2016,08,04,10,54,18.70
2016,08,04,10,55,18.70
2016,08,04,10,56,18.70
2016,08,04,10,57,18.80
2016,08,04,10,58,18.80
2016,08,04,10,59,18.80
2016,08,04,11,00,18.80
2016,08,04,11,01,18.70
2016,08,04,11,02,18.70
2016,08,04,11,03,18.70
2016,08,04,11,04,18.70
2016,08,04,11,05,18.70
2016,08,04,11,06,18.70
2016,08,04,11,07,18.70
2016,08,04,11,08,18.70
2016,08,04,11,09,18.70
2016,08,04,11,10,18.70
2016,08,04,11,11,18.70
2016,08,04,11,12,18.70
2016,08,04,11,13,18.70
2016,08,04,11,14,18.70
2016,08,04,11,15,18.80
2016,08,04,11,16,18.80
2016,08,04,11,17,18.90
2016,08,04,11,18,18.90
2016,08,04,11,19,18.90
2016,08,04,11,20,18.90
2016,08,04,11,21,19.00
2016,08,04,11,22,19.00
2016,08,04,11,23,19.00
2016,08,04,11,24,19.00
2016,08,04,11,25,19.00
2016,08,04,11,26,19.00
2016,08,04,11,27,19.10
2016,08,04,11,28,19.00
2016,08,04,11,29,19.00
2016,08,04,11,30,18.90
2016,08,04,11,31,18.90
2016,08,04,11,32,18.90
2016,08,04,11,33,18.90
2016,08,04,11,34,18.80
2016,08,04,11,35,18.80
2016,08,04,11,36,18.80
2016,08,04,11,37,18.70
2016,08,04,11,38,18.70
2016,08,04,11,39,18.80
2016,08,04,11,40,18.80
2016,08,04,11,41,18.80
2016,08,04,11,42,18.90
2016,08,04,11,43,18.90
2016,08,04,11,44,18.80
2016,08,04,11,45,18.80
2016,08,04,11,46,18.80
2016,08,04,11,47,18.80
2016,08,04,11,48,18.80
2016,08,04,11,49,18.80
2016,08,04,11,50,18.80
2016,08,04,11,51,18.90
2016,08,04,11,52,18.90
2016,08,04,11,53,18.90
2016,08,04,11,54,18.90
2016,08,04,11,55,18.90
2016,08,04,11,56,18.90
2016,08,04,11,57,18.90
2016,08,04,11,58,18.90
2016,08,04,11,59,19.00
2016,08,04,12,00,19.10
2016,08,04,12,01,19.20
2016,08,04,12,02,19.30
2016,08,04,12,03,19.30
2016,08,04,12,04,19.30
2016,08,04,12,05,19.30
2016,08,04,12,06,19.30
2016,08,04,12,07,19.30
2016,08,04,12,08,19.20
2016,08,04,12,09,19.20
2016,08,04,12,10,19.20
2016,08,04,12,11,19.10
2016,08,04,12,12,19.20
2016,08,04,12,13,19.20
2016,08,04,12,14,19.20
2016,08,04,12,15,19.30
2016,08,04,12,16,19.40
2016,08,04,12,17,19.50
2016,08,04,12,18,19.50
2016,08,04,12,19,19.40
2016,08,04,12,20,19.40
2016,08,04,12,21,19.40
2016,08,04,12,22,19.30
2016,08,04,12,23,19.20
2016,08,04,12,24,19.10
2016,08,04,12,25,19.00
2016,08,04,12,26,19.00
2016,08,04,12,27,18.90
2016,08,04,12,28,18.90
2016,08,04,12,29,18.90
2016,08,04,12,30,18.80
2016,08,04,12,31,18.90
2016,08,04,12,32,18.90
2016,08,04,12,33,18.90
2016,08,04,12,34,18.90
2016,08,04,12,35,18.90
2016,08,04,12,36,18.90
2016,08,04,12,37,18.90
2016,08,04,12,38,18.80
2016,08,04,12,39,18.80
2016,08,04,12,40,18.80
2016,08,04,12,41,18.80
2016,08,04,12,42,18.90
2016,08,04,12,43,18.90
2016,08,04,12,44,18.90
2016,08,04,12,45,18.80
2016,08,04,12,46,18.70
2016,08,04,12,47,18.60
2016,08,04,12,48,18.50
2016,08,04,12,49,18.50
2016,08,04,12,50,18.40
2016,08,04,12,51,18.40
2016,08,04,12,52,18.50
2016,08,04,12,53,18.50
2016,08,04,12,54,18.60
2016,08,04,12,55,18.60
2016,08,04,12,56,18.70
2016,08,04,12,57,18.70
2016,08,04,12,58,18.70
2016,08,04,12,59,18.70
2016,08,04,13,00,18.70
2016,08,04,13,01,18.70
2016,08,04,13,02,18.80
2016,08,04,13,03,18.80
2016,08,04,13,04,18.80
2016,08,04,13,05,18.80
2016,08,04,13,06,18.80
2016,08,04,13,07,18.80
2016,08,04,13,08,18.80
2016,08,04,13,09,18.80
2016,08,04,13,10,18.90
2016,08,04,13,11,18.90
2016,08,04,13,12,18.80
2016,08,04,13,13,18.80
2016,08,04,13,14,18.90
2016,08,04,13,15,18.90
2016,08,04,13,16,18.90
2016,08,04,13,17,19.00
2016,08,04,13,18,19.10
2016,08,04,13,19,19.10
2016,08,04,13,20,19.10
2016,08,04,13,21,19.00
2016,08,04,13,22,19.00
2016,08,04,13,23,19.10
2016,08,04,13,24,19.20
2016,08,04,13,25,19.20
2016,08,04,13,26,19.30
2016,08,04,13,27,19.30
2016,08,04,13,28,19.40
2016,08,04,13,29,19.50
2016,08,04,13,30,19.50
2016,08,04,13,31,19.40
2016,08,04,13,32,19.40
2016,08,04,13,33,19.30
2016,08,04,13,34,19.40
2016,08,04,13,35,19.40
2016,08,04,13,36,19.40
2016,08,04,13,37,19.40
2016,08,04,13,38,19.40
2016,08,04,13,39,19.40
2016,08,04,13,40,19.40
2016,08,04,13,41,19.30
2016,08,04,13,42,19.30
2016,08,04,13,43,19.30
2016,08,04,13,44,19.30
2016,08,04,13,45,19.30
2016,08,04,13,46,19.30
2016,08,04,13,47,19.40
2016,08,04,13,48,19.50
2016,08,04,13,49,19.60
2016,08,04,13,50,19.60
2016,08,04,13,51,19.70
2016,08,04,13,52,19.70
2016,08,04,13,53,19.70
2016,08,04,13,54,19.70
2016,08,04,13,55,19.70
2016,08,04,13,56,19.70
2016,08,04,13,57,19.70
2016,08,04,13,58,19.70
2016,08,04,13,59,19.70
2016,08,04,14,00,19.70
2016,08,04,14,01,19.70
2016,08,04,14,02,19.70
2016,08,04,14,03,19.80
2016,08,04,14,04,19.90
2016,08,04,14,05,20.00
2016,08,04,14,06,20.00
2016,08,04,14,07,20.10
2016,08,04,14,08,20.10
2016,08,04,14,09,20.10
2016,08,04,14,10,20.10
2016,08,04,14,11,20.20
2016,08,04,14,12,20.20
2016,08,04,14,13,20.30
2016,08,04,14,14,20.20
2016,08,04,14,15,20.10
2016,08,04,14,16,20.10
2016,08,04,14,17,20.10
2016,08,04,14,18,20.20
2016,08,04,14,19,20.20
2016,08,04,14,20,20.30
2016,08,04,14,21,20.30
2016,08,04,14,22,20.30
2016,08,04,14,23,20.30
2016,08,04,14,24,20.30
2016,08,04,14,25,20.30
2016,08,04,14,26,20.30
2016,08,04,14,27,20.30
2016,08,04,14,28,20.40
2016,08,04,14,29,20.40
2016,08,04,14,30,20.40
2016,08,04,14,31,20.40
2016,08,04,14,32,20.50
2016,08,04,14,33,20.50
2016,08,04,14,34,20.50
2016,08,04,14,35,20.60
2016,08,04,14,36,20.70
2016,08,04,14,37,20.70
2016,08,04,14,38,20.80
2016,08,04,14,39,20.80
2016,08,04,14,40,20.80
2016,08,04,14,41,20.80
2016,08,04,14,42,20.80
2016,08,04,14,43,20.80
2016,08,04,14,44,20.70
2016,08,04,14,45,20.70
2016,08,04,14,46,20.70
2016,08,04,14,47,20.80
2016,08,04,14,48,20.80
2016,08,04,14,49,20.90
2016,08,04,14,50,20.90
2016,08,04,14,51,21.00
2016,08,04,14,52,21.10
2016,08,04,14,53,21.10
2016,08,04,14,54,21.20
2016,08,04,14,55,21.20
2016,08,04,14,56,21.30
2016,08,04,14,57,21.30
2016,08,04,14,58,21.30
2016,08,04,14,59,21.30
2016,08,04,15,00,21.30
2016,08,04,15,01,21.30
2016,08,04,15,02,21.30
2016,08,04,15,03,21.30
2016,08,04,15,04,21.30
2016,08,04,15,05,21.30
2016,08,04,15,06,21.30
2016,08,04,15,41,21.70
2016,08,04,15,42,21.80
2016,08,04,15,43,21.80
2016,08,04,15,44,21.80
2016,08,04,15,45,21.70
2016,08,04,15,46,21.60
2016,08,04,15,47,21.60
2016,08,04,15,48,21.50
2016,08,04,15,49,21.50
2016,08,04,15,50,21.40
2016,08,04,15,51,21.30
2016,08,04,15,52,21.20
2016,08,04,15,53,21.20
2016,08,04,15,54,21.10
2016,08,04,15,55,21.10
2016,08,04,15,56,21.10
2016,08,04,15,57,21.10
2016,08,04,15,58,21.00
2016,08,04,15,59,21.00
2016,08,04,16,00,21.00
2016,08,04,16,01,21.00
2016,08,04,16,02,21.10
2016,08,04,16,03,21.20
2016,08,04,16,04,21.20
2016,08,04,16,05,21.20
2016,08,04,16,06,21.20
2016,08,04,16,07,21.20
2016,08,04,16,08,21.20
2016,08,04,16,09,21.30
2016,08,04,16,10,21.30
2016,08,04,16,11,21.40
2016,08,04,16,12,21.40
2016,08,04,16,13,21.50
2016,08,04,16,14,21.50
2016,08,04,16,15,21.60
2016,08,04,16,16,21.70
2016,08,04,16,17,21.80
2016,08,04,16,18,21.80
2016,08,04,16,19,21.80
2016,08,04,16,20,21.80
2016,08,04,16,21,21.80
2016,08,04,16,22,21.80
2016,08,04,16,23,21.90
2016,08,04,16,24,21.90
2016,08,04,16,25,21.90
2016,08,04,16,26,21.80
2016,08,04,16,27,21.80
2016,08,04,16,28,21.70
2016,08,04,16,29,21.60
2016,08,04,16,30,21.60
2016,08,04,16,31,21.60
2016,08,04,16,32,21.60
2016,08,04,16,33,21.70
2016,08,04,16,34,21.70
2016,08,04,16,35,21.70
2016,08,04,16,36,21.80
2016,08,04,16,37,21.80
2016,08,04,16,38,21.90
2016,08,04,16,39,21.90
2016,08,04,16,40,21.90
2016,08,04,16,41,21.90
2016,08,04,16,42,21.90
2016,08,04,16,43,21.90
2016,08,04,16,44,21.90
2016,08,04,16,45,22.00
2016,08,04,16,46,21.90
2016,08,04,16,47,21.90
2016,08,04,16,48,21.90
2016,08,04,16,49,21.90
2016,08,04,16,50,21.90
2016,08,04,16,51,22.00
2016,08,04,16,52,22.00
2016,08,04,16,53,22.10
2016,08,04,16,54,22.10
2016,08,04,16,55,22.10
2016,08,04,16,56,22.10
2016,08,04,16,57,22.00
2016,08,04,16,58,22.00
2016,08,04,16,59,22.00
2016,08,04,17,00,22.00
2016,08,04,17,01,22.00
2016,08,04,17,02,22.10
2016,08,04,17,03,22.10
2016,08,04,17,04,22.10
2016,08,04,17,05,22.20
2016,08,04,17,06,22.10
2016,08,04,17,07,22.20
2016,08,04,17,08,22.20
2016,08,04,17,09,22.20
2016,08,04,17,10,22.20
2016,08,04,17,11,22.20
2016,08,04,17,12,22.20
2016,08,04,17,13,22.20
2016,08,04,17,14,22.20
2016,08,04,17,15,22.30
2016,08,04,17,16,22.30
2016,08,04,17,17,22.30
2016,08,04,17,18,22.30
2016,08,04,17,19,22.40
2016,08,04,17,20,22.40
2016,08,04,17,21,22.40
2016,08,04,17,22,22.40
2016,08,04,17,23,22.40
2016,08,04,17,24,22.40
2016,08,04,17,25,22.30
2016,08,04,17,26,22.30
2016,08,04,17,27,22.30
2016,08,04,17,28,22.20
2016,08,04,17,29,22.20
2016,08,04,17,30,22.10
2016,08,04,17,31,22.10
2016,08,04,17,32,22.10
2016,08,04,17,33,22.10
2016,08,04,17,34,22.00
2016,08,04,17,35,22.00
2016,08,04,17,36,22.00
2016,08,04,17,37,22.00
2016,08,04,17,38,22.00
2016,08,04,17,39,22.00
2016,08,04,17,40,22.10
2016,08,04,17,41,22.10
2016,08,04,17,42,22.10
2016,08,04,17,43,22.10
2016,08,04,17,44,22.00
2016,08,04,17,45,22.00
2016,08,04,17,46,22.00
2016,08,04,17,47,22.00
2016,08,04,17,48,22.00
2016,08,04,17,49,22.00
2016,08,04,17,50,22.10
2016,08,04,17,51,22.10
2016,08,04,17,52,22.10
2016,08,04,17,53,22.10